sat.trackr.live / text

‹ back to catalog

STARLINK-2407

NORAD 47822 · 2021-018AM

PAYLOAD ACTIVE UNKNOWN

§ Identity

Operator
Country
US
Launch date
2021-03-11
Launch site
AFETR
Launch vehicle
Mass (kg)
RCS (m²)

Purposes: comms

External: N2YO · Heavens-Above · Gunter

§ Orbital elements

Epoch: 2026-09-12T23:22:17.027616Z

Period
94.01 min
Inclination
53.1589°
Eccentricity
0.0000945
Mean motion
15.31718667 rev/d
Perigee alt
470.0 km
Apogee alt
471.3 km
Semi-major
6,848.8 km
B*
2.1431e-4
RAAN
103.7127°
Arg perigee
125.1767°
Mean anomaly
234.9323°
Rev number
30,525

§ Raw data

STARLINK-24071 47822U 21018AM  26255.97380819  .00006295  00000+0  21431-3 0  99952 47822  53.1589 103.7127 0000945 125.1767 234.9323 15.31718667305250

JSON: /api/v1/satellites/47822 · /tle

For live sub-satellite position, see the globe view (requires WebGL).

§ Visibility from observer

Set your observer location to see the next 7 days of passes ≥ 10°. The values pass through the URL so the page stays shareable.

No JS? Fill the form by hand. The geolocation button needs JavaScript.